Time,TemperatureF,DewpointF,PressureIn,WindDirection,WindDirectionDegrees,WindSpeedMPH,WindSpeedGustMPH,Humidity,HourlyPrecipIn,Conditions,Clouds,dailyrainin,SoftwareType,DateUTC
2013-06-16 00:00:00,65.5,60.2,30.09,NW,321,0.0,0.0,83,0.00,,,0.00,VWS V14.01,2013-06-16 04:00:00,
2013-06-16 00:01:00,65.5,60.2,30.09,NW,321,0.0,0.0,83,0.00,,,0.00,VWS V14.01,2013-06-16 04:01:00,
2013-06-16 00:06:00,65.1,59.8,30.09,NW,321,0.0,0.0,83,0.00,,,0.00,VWS V14.01,2013-06-16 04:06:00,
2013-06-16 00:11:00,64.8,59.9,30.09,NW,321,0.0,0.0,84,0.00,,,0.00,VWS V14.01,2013-06-16 04:11:00,
2013-06-16 00:16:00,64.5,59.6,30.10,NW,321,0.0,0.0,84,0.00,,,0.00,VWS V14.01,2013-06-16 04:16:00,
2013-06-16 00:21:00,64.3,59.7,30.10,NW,321,0.0,0.0,85,0.00,,,0.00,VWS V14.01,2013-06-16 04:21:00,
2013-06-16 00:26:00,64.1,59.5,30.10,NW,321,0.0,0.0,85,0.00,,,0.00,VWS V14.01,2013-06-16 04:26:00,
2013-06-16 00:30:00,67.2,60.5,30.09,NW,321,0.0,4.0,79,0.00,,,0.00,VWS V15.00,2013-06-16 04:30:00,
2013-06-16 00:31:00,64.0,59.7,30.10,NW,321,0.0,0.0,86,0.00,,,0.00,VWS V14.01,2013-06-16 04:31:00,
2013-06-16 00:36:00,63.9,59.6,30.10,NW,321,0.0,0.0,86,0.00,,,0.00,VWS V14.01,2013-06-16 04:36:00,
2013-06-16 00:41:00,63.9,59.6,30.10,NW,321,0.0,0.0,86,0.00,,,0.00,VWS V14.01,2013-06-16 04:41:00,
2013-06-16 00:46:00,63.8,59.5,30.10,NW,321,0.0,0.0,86,0.00,,,0.00,VWS V14.01,2013-06-16 04:46:00,
2013-06-16 00:51:00,63.5,59.6,30.10,NW,321,0.0,0.0,87,0.00,,,0.00,VWS V14.01,2013-06-16 04:51:00,
2013-06-16 00:56:00,63.4,59.5,30.09,NW,321,0.0,0.0,87,0.00,,,0.00,VWS V14.01,2013-06-16 04:56:00,
2013-06-16 01:00:00,65.6,60.3,30.09,NW,321,0.0,0.0,83,0.00,,,0.00,VWS V15.00,2013-06-16 05:00:00,
2013-06-16 01:01:00,63.2,59.3,30.09,NW,321,0.0,0.0,87,0.00,,,0.00,VWS V14.01,2013-06-16 05:01:00,
2013-06-16 01:06:00,63.1,59.2,30.10,NW,321,0.0,0.0,87,0.00,,,0.00,VWS V14.01,2013-06-16 05:06:00,
2013-06-16 01:11:00,62.9,59.3,30.09,NW,321,0.0,0.0,88,0.00,,,0.00,VWS V14.01,2013-06-16 05:11:00,
2013-06-16 01:16:00,62.7,59.1,30.10,NW,321,0.0,0.0,88,0.00,,,0.00,VWS V14.01,2013-06-16 05:16:00,
2013-06-16 01:21:00,62.5,58.9,30.09,NW,321,0.0,0.0,88,0.00,,,0.00,VWS V14.01,2013-06-16 05:21:00,
2013-06-16 01:26:00,62.3,58.7,30.09,NW,321,0.0,0.0,88,0.00,,,0.00,VWS V14.01,2013-06-16 05:26:00,
2013-06-16 01:30:00,64.0,59.4,30.10,NW,321,0.0,0.0,85,0.00,,,0.00,VWS V15.00,2013-06-16 05:30:00,
2013-06-16 01:31:00,62.2,58.6,30.09,NW,321,0.0,0.0,88,0.00,,,0.00,VWS V14.01,2013-06-16 05:31:00,
2013-06-16 01:36:00,62.0,58.7,30.09,NW,321,0.0,0.0,89,0.00,,,0.00,VWS V14.01,2013-06-16 05:36:00,
2013-06-16 01:41:00,61.9,58.6,30.09,NW,321,0.0,0.0,89,0.00,,,0.00,VWS V14.01,2013-06-16 05:41:00,
2013-06-16 01:46:00,61.8,58.5,30.09,NW,321,0.0,0.0,89,0.00,,,0.00,VWS V14.01,2013-06-16 05:46:00,
2013-06-16 01:51:00,61.6,58.3,30.09,NW,321,0.0,0.0,89,0.00,,,0.00,VWS V14.01,2013-06-16 05:51:00,
2013-06-16 01:56:00,61.4,58.1,30.09,NW,321,0.0,0.0,89,0.00,,,0.00,VWS V14.01,2013-06-16 05:56:00,
2013-06-16 02:00:00,63.3,59.4,30.10,NW,321,0.0,0.0,87,0.00,,,0.00,VWS V15.00,2013-06-16 06:00:00,
2013-06-16 02:01:00,61.2,57.9,30.08,NW,321,0.0,0.0,89,0.00,,,0.00,VWS V14.01,2013-06-16 06:01:00,
2013-06-16 02:06:00,61.0,57.7,30.08,NW,321,0.0,0.0,89,0.00,,,0.00,VWS V14.01,2013-06-16 06:06:00,
2013-06-16 02:11:00,60.8,57.8,30.08,NW,321,0.0,0.0,90,0.00,,,0.00,VWS V14.01,2013-06-16 06:11:00,
2013-06-16 02:16:00,60.7,57.8,30.08,NW,321,0.0,0.0,90,0.00,,,0.00,VWS V14.01,2013-06-16 06:16:00,
2013-06-16 02:21:00,60.5,57.6,30.08,NW,321,0.0,0.0,90,0.00,,,0.00,VWS V14.01,2013-06-16 06:21:00,
2013-06-16 02:26:00,60.4,57.5,30.08,NW,321,0.0,0.0,90,0.00,,,0.00,VWS V14.01,2013-06-16 06:26:00,
2013-06-16 02:30:00,62.2,58.9,30.09,NW,321,0.0,0.0,89,0.00,,,0.00,VWS V15.00,2013-06-16 06:30:00,
2013-06-16 02:31:00,60.2,57.3,30.08,NW,321,0.0,0.0,90,0.00,,,0.00,VWS V14.01,2013-06-16 06:31:00,
2013-06-16 02:36:00,60.1,57.5,30.08,NW,321,0.0,0.0,91,0.00,,,0.00,VWS V14.01,2013-06-16 06:36:00,
2013-06-16 02:41:00,60.0,57.4,30.08,NW,321,0.0,0.0,91,0.00,,,0.00,VWS V14.01,2013-06-16 06:41:00,
2013-06-16 02:46:00,59.9,57.3,30.09,NW,321,0.0,0.0,91,0.00,,,0.00,VWS V14.01,2013-06-16 06:46:00,
2013-06-16 02:51:00,59.8,57.2,30.08,NW,321,0.0,0.0,91,0.00,,,0.00,VWS V14.01,2013-06-16 06:51:00,
2013-06-16 02:56:00,59.8,57.2,30.08,NW,321,0.0,0.0,91,0.00,,,0.00,VWS V14.01,2013-06-16 06:56:00,
2013-06-16 03:00:00,61.3,58.0,30.09,NW,321,0.0,0.0,89,0.00,,,0.00,VWS V15.00,2013-06-16 07:00:00,
2013-06-16 03:01:00,59.6,57.0,30.08,NW,321,0.0,0.0,91,0.00,,,0.00,VWS V14.01,2013-06-16 07:01:00,
2013-06-16 03:06:00,59.5,56.9,30.08,NW,321,0.0,0.0,91,0.00,,,0.00,VWS V14.01,2013-06-16 07:06:00,
2013-06-16 03:11:00,59.3,56.7,30.08,NW,321,0.0,0.0,91,0.00,,,0.00,VWS V14.01,2013-06-16 07:11:00,
2013-06-16 03:16:00,59.2,56.6,30.08,NW,321,0.0,0.0,91,0.00,,,0.00,VWS V14.01,2013-06-16 07:16:00,
2013-06-16 03:21:00,59.2,56.6,30.08,NW,321,0.0,0.0,91,0.00,,,0.00,VWS V14.01,2013-06-16 07:21:00,
2013-06-16 03:26:00,59.1,56.8,30.08,NW,321,0.0,0.0,92,0.00,,,0.00,VWS V14.01,2013-06-16 07:26:00,
2013-06-16 03:30:00,60.3,57.4,30.08,NW,321,0.0,0.0,90,0.00,,,0.00,VWS V15.00,2013-06-16 07:30:00,
2013-06-16 03:31:00,59.1,56.8,30.08,NW,321,0.0,0.0,92,0.00,,,0.00,VWS V14.01,2013-06-16 07:31:00,
2013-06-16 03:36:00,59.1,56.8,30.08,NW,321,0.0,0.0,92,0.00,,,0.00,VWS V14.01,2013-06-16 07:36:00,
2013-06-16 03:41:00,59.1,56.8,30.08,NW,321,0.0,0.0,92,0.00,,,0.00,VWS V14.01,2013-06-16 07:41:00,
2013-06-16 03:46:00,59.1,56.8,30.08,NW,321,0.0,0.0,92,0.00,,,0.00,VWS V14.01,2013-06-16 07:46:00,
2013-06-16 03:51:00,59.1,56.8,30.08,NW,321,0.0,0.0,92,0.00,,,0.00,VWS V14.01,2013-06-16 07:51:00,
2013-06-16 03:56:00,59.0,56.7,30.08,NW,321,0.0,0.0,92,0.00,,,0.00,VWS V14.01,2013-06-16 07:56:00,
2013-06-16 04:00:00,59.7,57.1,30.09,NW,321,0.0,0.0,91,0.00,,,0.00,VWS V15.00,2013-06-16 08:00:00,
2013-06-16 04:01:00,58.9,56.6,30.08,NW,321,0.0,0.0,92,0.00,,,0.00,VWS V14.01,2013-06-16 08:01:00,
2013-06-16 04:06:00,58.9,56.6,30.08,NW,321,0.0,0.0,92,0.00,,,0.00,VWS V14.01,2013-06-16 08:06:00,
2013-06-16 04:11:00,58.7,56.4,30.08,NW,321,0.0,0.0,92,0.00,,,0.00,VWS V14.01,2013-06-16 08:11:00,
2013-06-16 04:16:00,58.7,56.4,30.08,NW,321,0.0,0.0,92,0.00,,,0.00,VWS V14.01,2013-06-16 08:16:00,
2013-06-16 04:21:00,58.6,56.3,30.08,NW,321,0.0,0.0,92,0.00,,,0.00,VWS V14.01,2013-06-16 08:21:00,
2013-06-16 04:26:00,58.5,56.2,30.08,NW,321,0.0,0.0,92,0.00,,,0.00,VWS V14.01,2013-06-16 08:26:00,
2013-06-16 04:30:00,59.1,56.8,30.08,NW,321,0.0,0.0,92,0.00,,,0.00,VWS V15.00,2013-06-16 08:30:00,
2013-06-16 04:31:00,58.5,56.2,30.08,NW,321,0.0,0.0,92,0.00,,,0.00,VWS V14.01,2013-06-16 08:31:00,
2013-06-16 04:36:00,58.4,56.1,30.08,NW,321,0.0,0.0,92,0.00,,,0.00,VWS V14.01,2013-06-16 08:36:00,
2013-06-16 04:41:00,58.3,56.0,30.08,NW,321,0.0,0.0,92,0.00,,,0.00,VWS V14.01,2013-06-16 08:41:00,
2013-06-16 04:46:00,58.2,55.9,30.08,NW,321,0.0,0.0,92,0.00,,,0.00,VWS V14.01,2013-06-16 08:46:00,
2013-06-16 04:51:00,58.1,55.8,30.08,NW,321,0.0,0.0,92,0.00,,,0.00,VWS V14.01,2013-06-16 08:51:00,
2013-06-16 04:56:00,58.0,55.7,30.08,NW,321,0.0,0.0,92,0.00,,,0.00,VWS V14.01,2013-06-16 08:56:00,
2013-06-16 05:00:00,59.0,56.7,30.08,NW,321,0.0,0.0,92,0.00,,,0.00,VWS V15.00,2013-06-16 09:00:00,
2013-06-16 05:01:00,58.0,55.7,30.08,NW,321,0.0,0.0,92,0.00,,,0.00,VWS V14.01,2013-06-16 09:01:00,
2013-06-16 05:06:00,57.9,55.6,30.08,NW,321,0.0,0.0,92,0.00,,,0.00,VWS V14.01,2013-06-16 09:06:00,
2013-06-16 05:11:00,57.8,55.5,30.09,NW,321,0.0,0.0,92,0.00,,,0.00,VWS V14.01,2013-06-16 09:11:00,
2013-06-16 05:16:00,57.7,55.4,30.08,NW,321,0.0,0.0,92,0.00,,,0.00,VWS V14.01,2013-06-16 09:16:00,
2013-06-16 05:21:00,57.6,55.3,30.09,NW,321,0.0,0.0,92,0.00,,,0.00,VWS V14.01,2013-06-16 09:21:00,
2013-06-16 05:26:00,57.5,55.2,30.08,NW,321,0.0,0.0,92,0.00,,,0.00,VWS V14.01,2013-06-16 09:26:00,
2013-06-16 05:30:00,58.5,56.2,30.08,NW,321,0.0,0.0,92,0.00,,,0.00,VWS V15.00,2013-06-16 09:30:00,
2013-06-16 05:31:00,57.4,55.1,30.08,NW,321,0.0,0.0,92,0.00,,,0.00,VWS V14.01,2013-06-16 09:31:00,
2013-06-16 05:36:00,57.2,54.9,30.09,NW,321,0.0,0.0,92,0.00,,,0.00,VWS V14.01,2013-06-16 09:36:00,
2013-06-16 05:41:00,57.2,55.2,30.09,NW,321,0.0,0.0,93,0.00,,,0.00,VWS V14.01,2013-06-16 09:41:00,
2013-06-16 05:46:00,57.1,55.1,30.09,NW,321,0.0,0.0,93,0.00,,,0.00,VWS V14.01,2013-06-16 09:46:00,
2013-06-16 05:51:00,57.1,55.1,30.09,NW,321,0.0,0.0,93,0.00,,,0.00,VWS V14.01,2013-06-16 09:51:00,
2013-06-16 05:56:00,57.0,55.0,30.10,NW,321,0.0,0.0,93,0.00,,,0.00,VWS V14.01,2013-06-16 09:56:00,
2013-06-16 06:00:00,58.0,55.7,30.08,NW,321,0.0,0.0,92,0.00,,,0.00,VWS V15.00,2013-06-16 10:00:00,
2013-06-16 06:01:00,56.9,54.9,30.10,NW,321,0.0,0.0,93,0.00,,,0.00,VWS V14.01,2013-06-16 10:01:00,
2013-06-16 06:06:00,56.8,54.8,30.10,NW,321,0.0,0.0,93,0.00,,,0.00,VWS V14.01,2013-06-16 10:06:00,
2013-06-16 06:11:00,56.8,54.8,30.11,NW,321,0.0,0.0,93,0.00,,,0.00,VWS V14.01,2013-06-16 10:11:00,
2013-06-16 06:16:00,56.7,54.7,30.11,NW,321,0.0,0.0,93,0.00,,,0.00,VWS V14.01,2013-06-16 10:16:00,
2013-06-16 06:21:00,56.7,54.7,30.11,NW,321,0.0,0.0,93,0.00,,,0.00,VWS V14.01,2013-06-16 10:21:00,
2013-06-16 06:26:00,56.6,54.6,30.11,NW,321,0.0,0.0,93,0.00,,,0.00,VWS V14.01,2013-06-16 10:26:00,
2013-06-16 06:30:00,57.4,55.1,30.09,NW,321,0.0,0.0,92,0.00,,,0.00,VWS V15.00,2013-06-16 10:30:00,
2013-06-16 06:31:00,56.6,54.6,30.11,NW,321,0.0,0.0,93,0.00,,,0.00,VWS V14.01,2013-06-16 10:31:00,
2013-06-16 06:36:00,56.5,54.5,30.12,NW,321,0.0,0.0,93,0.00,,,0.00,VWS V14.01,2013-06-16 10:36:00,
2013-06-16 06:41:00,56.5,54.5,30.11,NW,321,0.0,0.0,93,0.00,,,0.00,VWS V14.01,2013-06-16 10:41:00,
2013-06-16 06:46:00,56.5,54.5,30.12,NW,321,0.0,0.0,93,0.00,,,0.00,VWS V14.01,2013-06-16 10:46:00,
2013-06-16 06:51:00,56.6,54.6,30.12,NW,321,0.0,0.0,93,0.00,,,0.00,VWS V14.01,2013-06-16 10:51:00,
2013-06-16 06:56:00,56.6,54.6,30.11,West,271,0.0,0.0,93,0.00,,,0.00,VWS V14.01,2013-06-16 10:56:00,
2013-06-16 07:00:00,57.0,55.0,30.10,NW,321,0.0,0.0,93,0.00,,,0.00,VWS V15.00,2013-06-16 11:00:00,
2013-06-16 07:01:00,56.7,54.7,30.11,West,271,0.0,0.0,93,0.00,,,0.00,VWS V14.01,2013-06-16 11:01:00,
2013-06-16 07:06:00,56.8,54.8,30.11,West,271,0.0,0.0,93,0.00,,,0.00,VWS V14.01,2013-06-16 11:06:00,
2013-06-16 07:11:00,56.8,54.8,30.11,West,271,0.0,0.0,93,0.00,,,0.00,VWS V14.01,2013-06-16 11:11:00,
2013-06-16 07:16:00,57.0,55.0,30.11,West,271,0.0,0.0,93,0.00,,,0.00,VWS V14.01,2013-06-16 11:16:00,
2013-06-16 07:21:00,57.2,55.2,30.12,West,271,0.0,0.0,93,0.00,,,0.00,VWS V14.01,2013-06-16 11:21:00,
2013-06-16 07:26:00,57.3,55.6,30.12,West,271,0.0,0.0,94,0.00,,,0.00,VWS V14.01,2013-06-16 11:26:00,
2013-06-16 07:30:00,56.6,54.6,30.12,NW,321,0.0,0.0,93,0.00,,,0.00,VWS V15.00,2013-06-16 11:30:00,
2013-06-16 07:31:00,57.6,55.9,30.12,West,271,0.0,0.0,94,0.00,,,0.00,VWS V14.01,2013-06-16 11:31:00,
2013-06-16 07:36:00,57.8,56.1,30.12,West,271,0.0,0.0,94,0.00,,,0.00,VWS V14.01,2013-06-16 11:36:00,
2013-06-16 07:41:00,58.1,56.4,30.12,West,271,0.0,0.0,94,0.00,,,0.00,VWS V14.01,2013-06-16 11:41:00,
2013-06-16 07:46:00,58.4,56.7,30.12,West,271,0.0,0.0,94,0.00,,,0.00,VWS V14.01,2013-06-16 11:46:00,
2013-06-16 07:51:00,58.6,56.9,30.12,West,275,0.0,0.0,94,0.00,,,0.00,VWS V14.01,2013-06-16 11:51:00,
2013-06-16 07:56:00,58.8,57.1,30.12,West,275,0.0,0.0,94,0.00,,,0.00,VWS V14.01,2013-06-16 11:56:00,
2013-06-16 08:00:00,56.7,54.7,30.11,West,271,0.0,0.0,93,0.00,,,0.00,VWS V15.00,2013-06-16 12:00:00,
2013-06-16 08:01:00,59.1,57.4,30.12,West,275,0.0,0.0,94,0.00,,,0.00,VWS V14.01,2013-06-16 12:01:00,
2013-06-16 08:06:00,59.6,57.9,30.12,West,275,0.0,0.0,94,0.00,,,0.00,VWS V14.01,2013-06-16 12:06:00,
2013-06-16 08:11:00,60.0,58.3,30.12,NE,39,0.0,0.0,94,0.00,,,0.00,VWS V14.01,2013-06-16 12:11:00,
2013-06-16 08:16:00,60.3,58.3,30.12,NE,39,0.0,0.0,93,0.00,,,0.00,VWS V14.01,2013-06-16 12:16:00,
2013-06-16 08:21:00,60.7,58.7,30.12,NE,39,0.0,0.0,93,0.00,,,0.00,VWS V14.01,2013-06-16 12:21:00,
2013-06-16 08:26:00,61.1,59.1,30.12,NE,39,0.0,0.0,93,0.00,,,0.00,VWS V14.01,2013-06-16 12:26:00,
2013-06-16 08:30:00,57.5,55.8,30.12,West,271,0.0,0.0,94,0.00,,,0.00,VWS V15.00,2013-06-16 12:30:00,
2013-06-16 08:31:00,61.4,59.4,30.12,WNW,296,0.0,0.0,93,0.00,,,0.00,VWS V14.01,2013-06-16 12:31:00,
2013-06-16 08:36:00,61.7,59.4,30.12,WNW,296,0.0,0.0,92,0.00,,,0.00,VWS V14.01,2013-06-16 12:36:00,
2013-06-16 08:41:00,62.1,59.8,30.12,WNW,296,0.0,1.0,92,0.00,,,0.00,VWS V14.01,2013-06-16 12:41:00,
2013-06-16 08:46:00,62.7,60.0,30.12,WNW,296,0.0,1.0,91,0.00,,,0.00,VWS V14.01,2013-06-16 12:46:00,
2013-06-16 08:51:00,63.2,60.5,30.12,WNW,296,0.0,1.0,91,0.00,,,0.00,VWS V14.01,2013-06-16 12:51:00,
2013-06-16 08:56:00,63.8,60.8,30.12,WNW,296,0.0,1.0,90,0.00,,,0.00,VWS V14.01,2013-06-16 12:56:00,
2013-06-16 09:00:00,58.9,57.2,30.12,West,275,0.0,0.0,94,0.00,,,0.00,VWS V15.00,2013-06-16 13:00:00,
2013-06-16 09:01:00,64.7,61.4,30.12,West,277,0.0,0.0,89,0.00,,,0.00,VWS V14.01,2013-06-16 13:01:00,
2013-06-16 09:06:00,65.5,61.5,30.12,WSW,241,0.0,5.0,87,0.00,,,0.00,VWS V14.01,2013-06-16 13:06:00,
2013-06-16 09:11:00,66.5,61.9,30.12,West,265,1.0,6.0,85,0.00,,,0.00,VWS V14.01,2013-06-16 13:11:00,
2013-06-16 09:16:00,67.5,62.2,30.12,West,265,0.0,6.0,83,0.00,,,0.00,VWS V14.01,2013-06-16 13:16:00,
2013-06-16 09:21:00,68.4,61.6,30.12,WSW,254,3.0,6.0,79,0.00,,,0.00,VWS V14.01,2013-06-16 13:21:00,
2013-06-16 09:26:00,69.1,62.0,30.11,WNW,284,0.0,6.0,78,0.00,,,0.00,VWS V14.01,2013-06-16 13:26:00,
2013-06-16 09:30:00,61.3,59.3,30.12,WNW,296,0.0,0.0,93,0.00,,,0.00,VWS V15.00,2013-06-16 13:30:00,
2013-06-16 09:31:00,69.8,62.3,30.11,West,279,0.0,3.0,77,0.00,,,0.00,VWS V14.01,2013-06-16 13:31:00,
2013-06-16 09:36:00,70.2,62.3,30.11,West,279,0.0,3.0,76,0.00,,,0.00,VWS V14.01,2013-06-16 13:36:00,
2013-06-16 09:41:00,70.6,62.7,30.11,West,267,0.0,5.0,76,0.00,,,0.00,VWS V14.01,2013-06-16 13:41:00,
2013-06-16 09:46:00,71.1,63.2,30.11,SW,229,0.0,6.0,76,0.00,,,0.00,VWS V14.01,2013-06-16 13:46:00,
2013-06-16 09:51:00,71.5,62.4,30.11,West,261,2.0,6.0,73,0.00,,,0.00,VWS V14.01,2013-06-16 13:51:00,
2013-06-16 09:56:00,71.8,63.1,30.11,WSW,254,0.0,6.0,74,0.00,,,0.00,VWS V14.01,2013-06-16 13:56:00,
2013-06-16 10:00:00,64.4,61.1,30.12,West,277,0.0,4.0,89,0.00,,,0.00,VWS V15.00,2013-06-16 14:00:00,
2013-06-16 10:01:00,72.2,62.7,30.11,WSW,255,1.0,4.0,72,0.00,,,0.00,VWS V14.01,2013-06-16 14:01:00,
2013-06-16 10:06:00,72.5,62.6,30.11,WSW,244,2.0,4.0,71,0.00,,,0.00,VWS V14.01,2013-06-16 14:06:00,
2013-06-16 10:11:00,72.6,61.9,30.10,West,272,3.0,6.0,69,0.00,,,0.00,VWS V14.01,2013-06-16 14:11:00,
2013-06-16 10:16:00,72.7,62.4,30.10,WSW,241,2.0,7.0,70,0.00,,,0.00,VWS V14.01,2013-06-16 14:16:00,
2013-06-16 10:21:00,72.9,62.1,30.10,WSW,242,2.0,7.0,69,0.00,,,0.00,VWS V14.01,2013-06-16 14:21:00,
2013-06-16 10:26:00,73.2,62.8,30.10,WSW,253,0.0,7.0,70,0.00,,,0.00,VWS V14.01,2013-06-16 14:26:00,
2013-06-16 10:30:00,69.5,62.3,30.11,West,279,0.0,7.0,78,0.00,,,0.00,VWS V15.00,2013-06-16 14:30:00,
2013-06-16 10:31:00,73.6,62.4,30.09,WSW,243,2.0,4.0,68,0.00,,,0.00,VWS V14.01,2013-06-16 14:31:00,
2013-06-16 10:36:00,73.6,62.8,30.10,West,275,1.0,7.0,69,0.00,,,0.00,VWS V14.01,2013-06-16 14:36:00,
2013-06-16 10:41:00,73.7,62.5,30.10,West,273,0.0,7.0,68,0.00,,,0.00,VWS V14.01,2013-06-16 14:41:00,
2013-06-16 10:46:00,73.8,62.2,30.10,West,259,1.0,7.0,67,0.00,,,0.00,VWS V14.01,2013-06-16 14:46:00,
2013-06-16 10:51:00,73.8,61.7,30.09,WSW,258,0.0,7.0,66,0.00,,,0.00,VWS V14.01,2013-06-16 14:51:00,
2013-06-16 10:56:00,74.0,62.8,30.09,West,270,0.0,7.0,68,0.00,,,0.00,VWS V14.01,2013-06-16 14:56:00,
2013-06-16 11:00:00,72.0,62.9,30.11,SW,219,0.0,6.0,73,0.00,,,0.00,VWS V15.00,2013-06-16 15:00:00,
2013-06-16 11:01:00,74.2,63.0,30.09,West,270,0.0,1.0,68,0.00,,,0.00,VWS V14.01,2013-06-16 15:01:00,
2013-06-16 11:06:00,74.5,62.4,30.09,WSW,246,2.0,5.0,66,0.00,,,0.00,VWS V14.01,2013-06-16 15:06:00,
2013-06-16 11:11:00,74.6,62.1,30.09,WSW,257,1.0,5.0,65,0.00,,,0.00,VWS V14.01,2013-06-16 15:11:00,
2013-06-16 11:16:00,74.7,62.2,30.09,West,260,7.0,8.0,65,0.00,,,0.00,VWS V14.01,2013-06-16 15:16:00,
2013-06-16 11:21:00,74.7,62.6,30.09,West,281,0.0,8.0,66,0.00,,,0.00,VWS V14.01,2013-06-16 15:21:00,
2013-06-16 11:26:00,74.8,62.7,30.09,WSW,242,0.0,8.0,66,0.00,,,0.00,VWS V14.01,2013-06-16 15:26:00,
2013-06-16 11:30:00,73.5,63.1,30.09,WSW,257,2.0,7.0,70,0.00,,,0.00,VWS V15.00,2013-06-16 15:30:00,
2013-06-16 11:31:00,75.1,63.4,30.09,West,278,1.0,6.0,67,0.00,,,0.00,VWS V14.01,2013-06-16 15:31:00,
2013-06-16 11:36:00,75.4,62.8,30.09,WSW,257,1.0,6.0,65,0.00,,,0.00,VWS V14.01,2013-06-16 15:36:00,
2013-06-16 11:41:00,75.7,63.5,30.09,WSW,254,0.0,6.0,66,0.00,,,0.00,VWS V14.01,2013-06-16 15:41:00,
2013-06-16 11:46:00,75.9,63.7,30.08,West,271,1.0,7.0,66,0.00,,,0.00,VWS V14.01,2013-06-16 15:46:00,
2013-06-16 11:51:00,76.2,62.7,30.08,West,280,1.0,7.0,63,0.00,,,0.00,VWS V14.01,2013-06-16 15:51:00,
2013-06-16 11:56:00,76.5,62.5,30.08,West,269,4.0,8.0,62,0.00,,,0.00,VWS V14.01,2013-06-16 15:56:00,
2013-06-16 12:00:00,76.6,62.2,30.08,West,268,3.0,9.0,61,0.00,,,0.00,VWS V14.01,2013-06-16 16:00:00,
2013-06-16 12:05:00,76.7,62.7,30.08,SW,215,4.0,9.0,62,0.00,,,0.00,VWS V14.01,2013-06-16 16:05:00,
2013-06-16 12:10:00,77.0,63.9,30.08,SSW,207,2.0,9.0,64,0.00,,,0.00,VWS V14.01,2013-06-16 16:10:00,
2013-06-16 12:15:00,77.5,63.5,30.08,NW,307,0.0,9.0,62,0.00,,,0.00,VWS V14.01,2013-06-16 16:15:00,
2013-06-16 12:20:00,78.1,64.0,30.07,WNW,282,0.0,9.0,62,0.00,,,0.00,VWS V14.01,2013-06-16 16:20:00,
2013-06-16 12:25:00,78.5,63.5,30.07,WSW,248,4.0,9.0,60,0.00,,,0.00,VWS V14.01,2013-06-16 16:25:00,
2013-06-16 12:30:00,78.9,64.3,30.07,West,271,0.0,2.0,61,0.00,,,0.00,VWS V14.01,2013-06-16 16:30:00,
2013-06-16 12:35:00,79.4,63.8,30.07,WSW,250,5.0,5.0,59,0.00,,,0.00,VWS V14.01,2013-06-16 16:35:00,
2013-06-16 12:40:00,79.4,64.8,30.06,SW,225,2.0,6.0,61,0.00,,,0.00,VWS V14.01,2013-06-16 16:40:00,
2013-06-16 12:45:00,79.5,63.9,30.06,NW,313,0.0,6.0,59,0.00,,,0.00,VWS V14.01,2013-06-16 16:45:00,
2013-06-16 12:50:00,79.8,64.2,30.06,West,267,1.0,7.0,59,0.00,,,0.00,VWS V14.01,2013-06-16 16:50:00,
2013-06-16 12:55:00,79.9,64.8,30.06,West,280,0.0,8.0,60,0.00,,,0.00,VWS V14.01,2013-06-16 16:55:00,
2013-06-16 13:00:00,80.2,63.6,30.06,WSW,255,0.0,1.0,57,0.00,,,0.00,VWS V14.01,2013-06-16 17:00:00,
2013-06-16 13:05:00,80.2,62.1,30.06,West,266,2.0,5.0,54,0.00,,,0.00,VWS V14.01,2013-06-16 17:05:00,
2013-06-16 13:10:00,80.1,62.0,30.06,West,263,0.0,9.0,54,0.00,,,0.00,VWS V14.01,2013-06-16 17:10:00,
2013-06-16 13:15:00,80.4,63.3,30.06,SE,140,0.0,9.0,56,0.00,,,0.00,VWS V14.01,2013-06-16 17:15:00,
2013-06-16 13:20:00,80.7,63.0,30.05,NNW,327,5.0,9.0,55,0.00,,,0.00,VWS V14.01,2013-06-16 17:20:00,
2013-06-16 13:25:00,80.5,61.8,30.05,WSW,240,2.0,9.0,53,0.00,,,0.00,VWS V14.01,2013-06-16 17:25:00,
2013-06-16 13:30:00,80.7,62.5,30.05,SE,146,1.0,3.0,54,0.00,,,0.00,VWS V14.01,2013-06-16 17:30:00,
2013-06-16 13:35:00,80.5,62.9,30.05,South,178,1.0,3.0,55,0.00,,,0.00,VWS V14.01,2013-06-16 17:35:00,
2013-06-16 13:40:00,80.8,64.7,30.05,SW,215,1.0,4.0,58,0.00,,,0.00,VWS V14.01,2013-06-16 17:40:00,
2013-06-16 13:45:00,80.9,63.8,30.04,WSW,257,0.0,6.0,56,0.00,,,0.00,VWS V14.01,2013-06-16 17:45:00,
2013-06-16 13:50:00,81.0,61.7,30.04,SW,219,0.0,6.0,52,0.00,,,0.00,VWS V14.01,2013-06-16 17:50:00,
2013-06-16 13:55:00,81.1,62.9,30.04,South,183,0.0,6.0,54,0.00,,,0.00,VWS V14.01,2013-06-16 17:55:00,
2013-06-16 14:00:00,81.4,63.7,30.04,WSW,258,0.0,1.0,55,0.00,,,0.00,VWS V14.01,2013-06-16 18:00:00,
2013-06-16 14:05:00,81.6,62.3,30.04,West,268,0.0,5.0,52,0.00,,,0.00,VWS V14.01,2013-06-16 18:05:00,
2013-06-16 14:10:00,81.7,63.5,30.04,WSW,257,1.0,5.0,54,0.00,,,0.00,VWS V14.01,2013-06-16 18:10:00,
2013-06-16 14:15:00,82.0,63.2,30.04,WSW,246,0.0,5.0,53,0.00,,,0.00,VWS V14.01,2013-06-16 18:15:00,
2013-06-16 14:20:00,82.1,62.2,30.04,WSW,250,1.0,5.0,51,0.00,,,0.00,VWS V14.01,2013-06-16 18:20:00,
2013-06-16 14:25:00,81.8,62.5,30.04,West,267,4.0,7.0,52,0.00,,,0.00,VWS V14.01,2013-06-16 18:25:00,
2013-06-16 14:30:00,81.7,62.9,30.03,SW,223,3.0,3.0,53,0.00,,,0.00,VWS V14.01,2013-06-16 18:30:00,
2013-06-16 14:35:00,82.0,65.3,30.03,SW,215,0.0,3.0,57,0.00,,,0.00,VWS V14.01,2013-06-16 18:35:00,
2013-06-16 14:40:00,82.3,63.5,30.03,SSE,165,0.0,3.0,53,0.00,,,0.00,VWS V14.01,2013-06-16 18:40:00,
2013-06-16 14:45:00,82.3,62.9,30.02,NW,306,1.0,6.0,52,0.00,,,0.00,VWS V14.01,2013-06-16 18:45:00,
2013-06-16 14:50:00,82.6,63.8,30.02,NW,317,1.0,6.0,53,0.00,,,0.00,VWS V14.01,2013-06-16 18:50:00,
2013-06-16 14:55:00,82.9,64.6,30.02,West,262,0.0,6.0,54,0.00,,,0.00,VWS V14.01,2013-06-16 18:55:00,
2013-06-16 15:00:00,83.1,64.8,30.02,SSW,211,2.0,2.0,54,0.00,,,0.00,VWS V14.01,2013-06-16 19:00:00,
2013-06-16 15:05:00,83.0,63.0,30.02,SSW,197,0.0,5.0,51,0.00,,,0.00,VWS V14.01,2013-06-16 19:05:00,
2013-06-16 15:10:00,82.9,63.5,30.02,SSW,201,0.0,5.0,52,0.00,,,0.00,VWS V14.01,2013-06-16 19:10:00,
2013-06-16 15:15:00,82.8,63.4,30.02,South,186,0.0,5.0,52,0.00,,,0.00,VWS V14.01,2013-06-16 19:15:00,
2013-06-16 15:20:00,82.7,66.4,30.02,WSW,241,2.0,9.0,58,0.00,,,0.00,VWS V14.01,2013-06-16 19:20:00,
2013-06-16 15:25:00,83.0,66.2,30.02,West,261,0.0,9.0,57,0.00,,,0.00,VWS V14.01,2013-06-16 19:25:00,
2013-06-16 15:30:00,83.4,65.6,30.01,West,269,0.0,2.0,55,0.00,,,0.00,VWS V14.01,2013-06-16 19:30:00,
2013-06-16 15:35:00,83.5,64.0,30.01,South,187,0.0,2.0,52,0.00,,,0.00,VWS V14.01,2013-06-16 19:35:00,
2013-06-16 15:40:00,83.7,63.7,30.01,West,261,3.0,7.0,51,0.00,,,0.00,VWS V14.01,2013-06-16 19:40:00,
2013-06-16 15:45:00,83.3,62.7,30.01,WSW,255,0.0,7.0,50,0.00,,,0.00,VWS V14.01,2013-06-16 19:45:00,
2013-06-16 15:50:00,82.9,63.5,30.01,West,265,0.0,7.0,52,0.00,,,0.00,VWS V14.01,2013-06-16 19:50:00,
2013-06-16 15:55:00,82.9,64.0,30.01,West,262,1.0,7.0,53,0.00,,,0.00,VWS V14.01,2013-06-16 19:55:00,
2013-06-16 16:00:00,83.1,63.1,30.00,West,267,0.0,1.0,51,0.00,,,0.00,VWS V14.01,2013-06-16 20:00:00,
2013-06-16 16:05:00,83.3,63.3,30.00,WNW,288,0.0,1.0,51,0.00,,,0.00,VWS V14.01,2013-06-16 20:05:00,
2013-06-16 16:10:00,83.8,63.8,30.00,WNW,288,0.0,1.0,51,0.00,,,0.00,VWS V14.01,2013-06-16 20:10:00,
2013-06-16 16:15:00,84.1,65.1,30.00,WNW,288,0.0,2.0,53,0.00,,,0.00,VWS V14.01,2013-06-16 20:15:00,
2013-06-16 16:20:00,84.1,64.0,30.00,West,259,1.0,3.0,51,0.00,,,0.00,VWS V14.01,2013-06-16 20:20:00,
2013-06-16 16:25:00,83.8,63.8,30.00,West,259,0.0,3.0,51,0.00,,,0.00,VWS V14.01,2013-06-16 20:25:00,
2013-06-16 16:30:00,84.1,65.7,30.00,WSW,240,0.0,3.0,54,0.00,,,0.00,VWS V14.01,2013-06-16 20:30:00,
2013-06-16 16:35:00,84.3,64.8,30.00,WNW,292,2.0,3.0,52,0.00,,,0.00,VWS V14.01,2013-06-16 20:35:00,
2013-06-16 16:40:00,84.0,65.6,30.00,West,275,0.0,4.0,54,0.00,,,0.00,VWS V14.01,2013-06-16 20:40:00,
2013-06-16 16:45:00,83.3,66.0,30.00,SSW,197,0.0,4.0,56,0.00,,,0.00,VWS V14.01,2013-06-16 20:45:00,
2013-06-16 16:50:00,82.7,65.9,30.00,West,270,0.0,4.0,57,0.00,,,0.00,VWS V14.01,2013-06-16 20:50:00,
2013-06-16 16:55:00,82.0,65.8,30.00,SSW,196,0.0,4.0,58,0.00,,,0.00,VWS V14.01,2013-06-16 20:55:00,
2013-06-16 17:00:00,81.8,65.6,30.00,South,177,0.0,2.0,58,0.00,,,0.00,VWS V14.01,2013-06-16 21:00:00,
2013-06-16 17:05:00,81.6,65.9,30.00,SSE,155,0.0,2.0,59,0.00,,,0.00,VWS V14.01,2013-06-16 21:05:00,
2013-06-16 17:10:00,81.5,66.3,30.00,SSE,164,0.0,2.0,60,0.00,,,0.00,VWS V14.01,2013-06-16 21:10:00,
2013-06-16 17:15:00,80.9,65.7,30.00,SSE,167,0.0,5.0,60,0.00,,,0.00,VWS V14.01,2013-06-16 21:15:00,
2013-06-16 17:20:00,80.4,65.7,30.00,SSE,167,0.0,5.0,61,0.00,,,0.00,VWS V14.01,2013-06-16 21:20:00,
2013-06-16 17:25:00,80.2,66.5,30.00,WSW,237,0.0,5.0,63,0.00,,,0.00,VWS V14.01,2013-06-16 21:25:00,
2013-06-16 17:30:00,79.9,65.7,30.00,WSW,237,0.0,0.0,62,0.00,,,0.00,VWS V14.01,2013-06-16 21:30:00,
2013-06-16 17:35:00,79.6,65.9,30.00,WSW,237,0.0,1.0,63,0.00,,,0.00,VWS V14.01,2013-06-16 21:35:00,
2013-06-16 17:40:00,79.3,65.2,30.00,WSW,237,0.0,1.0,62,0.00,,,0.00,VWS V14.01,2013-06-16 21:40:00,
2013-06-16 17:45:00,79.1,65.9,30.00,WSW,237,0.0,1.0,64,0.00,,,0.00,VWS V14.01,2013-06-16 21:45:00,
2013-06-16 17:50:00,78.9,65.7,30.00,WSW,237,0.0,1.0,64,0.00,,,0.00,VWS V14.01,2013-06-16 21:50:00,
2013-06-16 17:55:00,78.9,66.2,30.00,WSW,237,1.0,1.0,65,0.00,,,0.00,VWS V14.01,2013-06-16 21:55:00,
2013-06-16 18:00:00,78.7,66.0,29.99,SW,231,0.0,0.0,65,0.00,,,0.00,VWS V14.01,2013-06-16 22:00:00,
2013-06-16 18:05:00,78.7,66.4,29.99,SW,230,0.0,0.0,66,0.00,,,0.00,VWS V14.01,2013-06-16 22:05:00,
2013-06-16 18:10:00,78.7,66.4,29.99,SW,230,0.0,0.0,66,0.00,,,0.00,VWS V14.01,2013-06-16 22:10:00,
2013-06-16 18:15:00,78.7,66.8,29.99,SW,230,0.0,0.0,67,0.00,,,0.00,VWS V14.01,2013-06-16 22:15:00,
2013-06-16 18:20:00,78.7,66.8,29.99,SW,230,0.0,0.0,67,0.00,,,0.00,VWS V14.01,2013-06-16 22:20:00,
2013-06-16 18:25:00,78.5,66.2,29.99,SW,230,0.0,0.0,66,0.00,,,0.00,VWS V14.01,2013-06-16 22:25:00,
2013-06-16 18:30:00,78.1,66.3,29.99,SW,214,0.0,0.0,67,0.00,,,0.00,VWS V14.01,2013-06-16 22:30:00,
2013-06-16 18:35:00,77.8,66.4,29.99,SW,214,0.0,0.0,68,0.00,,,0.00,VWS V14.01,2013-06-16 22:35:00,
2013-06-16 18:40:00,77.6,66.2,29.99,SW,214,0.0,0.0,68,0.00,,,0.00,VWS V14.01,2013-06-16 22:40:00,
2013-06-16 18:45:00,77.4,66.0,29.99,South,189,0.0,4.0,68,0.00,,,0.00,VWS V14.01,2013-06-16 22:45:00,
2013-06-16 18:50:00,77.2,66.2,29.99,SW,222,0.0,4.0,69,0.00,,,0.00,VWS V14.01,2013-06-16 22:50:00,
2013-06-16 18:55:00,77.0,66.1,29.99,SW,231,0.0,4.0,69,0.00,,,0.00,VWS V14.01,2013-06-16 22:55:00,
2013-06-16 19:00:00,76.8,65.9,30.00,WNW,290,0.0,2.0,69,0.00,,,0.00,VWS V14.01,2013-06-16 23:00:00,
2013-06-16 19:05:00,76.6,66.1,29.99,NNE,32,0.0,2.0,70,0.00,,,0.00,VWS V14.01,2013-06-16 23:05:00,
2013-06-16 19:10:00,76.4,65.9,30.00,East,96,0.0,2.0,70,0.00,,,0.00,VWS V14.01,2013-06-16 23:10:00,
2013-06-16 19:15:00,76.4,65.9,29.99,NE,43,0.0,2.0,70,0.00,,,0.00,VWS V14.01,2013-06-16 23:15:00,
2013-06-16 19:20:00,76.2,66.1,30.00,NNE,33,0.0,2.0,71,0.00,,,0.00,VWS V14.01,2013-06-16 23:20:00,
2013-06-16 19:25:00,76.1,65.6,29.99,NNE,33,0.0,2.0,70,0.00,,,0.00,VWS V14.01,2013-06-16 23:25:00,
2013-06-16 19:30:00,76.0,66.3,30.00,NNE,33,0.0,0.0,72,0.00,,,0.00,VWS V14.01,2013-06-16 23:30:00,
2013-06-16 19:35:00,76.0,66.3,29.99,NNE,33,0.0,0.0,72,0.00,,,0.00,VWS V14.01,2013-06-16 23:35:00,
2013-06-16 19:40:00,75.8,66.5,30.00,NE,36,0.0,1.0,73,0.00,,,0.00,VWS V14.01,2013-06-16 23:40:00,
2013-06-16 19:45:00,75.8,66.9,30.00,NE,36,0.0,1.0,74,0.00,,,0.00,VWS V14.01,2013-06-16 23:45:00,
2013-06-16 19:50:00,75.6,66.3,30.00,NE,36,0.0,1.0,73,0.00,,,0.00,VWS V14.01,2013-06-16 23:50:00,
2013-06-16 19:55:00,75.5,66.2,30.00,NE,36,0.0,2.0,73,0.00,,,0.00,VWS V14.01,2013-06-16 23:55:00,
2013-06-16 20:00:00,75.4,66.2,30.00,NE,36,0.0,0.0,73,0.00,,,0.00,VWS V14.01,2013-06-17 00:00:00,
2013-06-16 20:05:00,75.3,66.4,30.00,NE,36,0.0,0.0,74,0.00,,,0.00,VWS V14.01,2013-06-17 00:05:00,
2013-06-16 20:10:00,75.3,66.1,30.00,NE,36,0.0,0.0,73,0.00,,,0.00,VWS V14.01,2013-06-17 00:10:00,
2013-06-16 20:15:00,75.2,66.7,30.01,NE,36,0.0,0.0,75,0.00,,,0.00,VWS V14.01,2013-06-17 00:15:00,
2013-06-16 20:20:00,75.1,66.6,30.00,NE,36,0.0,1.0,75,0.00,,,0.00,VWS V14.01,2013-06-17 00:20:00,
2013-06-16 20:25:00,74.8,67.1,30.01,NE,36,0.0,1.0,77,0.00,,,0.00,VWS V14.01,2013-06-17 00:25:00,
2013-06-16 20:30:00,74.2,67.3,30.01,NE,36,0.0,2.0,79,0.00,,,0.00,VWS V14.01,2013-06-17 00:30:00,
2013-06-16 20:35:00,73.4,66.9,30.01,NE,49,0.0,4.0,80,0.00,,,0.00,VWS V14.01,2013-06-17 00:35:00,
2013-06-16 20:40:00,72.6,66.8,30.01,ENE,63,1.0,4.0,82,0.00,,,0.00,VWS V14.01,2013-06-17 00:40:00,
2013-06-16 20:45:00,71.9,66.8,30.01,NE,49,0.0,4.0,84,0.00,,,0.00,VWS V14.01,2013-06-17 00:45:00,
2013-06-16 20:50:00,71.0,66.3,30.01,North,5,0.0,4.0,85,0.00,,,0.00,VWS V14.01,2013-06-17 00:50:00,
2013-06-16 20:55:00,70.5,66.1,30.01,North,5,0.0,4.0,86,0.01,,,0.01,VWS V14.01,2013-06-17 00:55:00,
2013-06-16 21:00:00,70.1,65.7,30.01,ENE,61,1.0,1.0,86,0.01,,,0.01,VWS V14.01,2013-06-17 01:00:00,
2013-06-16 21:05:00,69.9,65.9,30.01,ENE,61,0.0,1.0,87,0.01,,,0.01,VWS V14.01,2013-06-17 01:05:00,
2013-06-16 21:10:00,69.7,66.0,30.01,ENE,61,0.0,1.0,88,0.01,,,0.01,VWS V14.01,2013-06-17 01:10:00,
2013-06-16 21:15:00,69.6,66.2,30.02,ENE,61,0.0,1.0,89,0.01,,,0.01,VWS V14.01,2013-06-17 01:15:00,
2013-06-16 21:20:00,69.5,66.1,30.01,ENE,61,0.0,1.0,89,0.01,,,0.01,VWS V14.01,2013-06-17 01:20:00,
2013-06-16 21:25:00,69.4,66.0,30.01,ENE,61,0.0,1.0,89,0.01,,,0.01,VWS V14.01,2013-06-17 01:25:00,
2013-06-16 21:30:00,69.3,65.9,30.01,ENE,61,0.0,1.0,89,0.01,,,0.01,VWS V14.01,2013-06-17 01:30:00,
2013-06-16 21:35:00,69.2,66.2,30.01,ENE,61,0.0,1.0,90,0.01,,,0.01,VWS V14.01,2013-06-17 01:35:00,
2013-06-16 21:40:00,69.1,65.7,30.01,ENE,61,0.0,1.0,89,0.01,,,0.01,VWS V14.01,2013-06-17 01:40:00,
2013-06-16 21:45:00,69.0,65.9,30.01,ENE,61,0.0,1.0,90,0.01,,,0.01,VWS V14.01,2013-06-17 01:45:00,
2013-06-16 21:50:00,68.8,65.8,30.01,ENE,61,0.0,1.0,90,0.01,,,0.01,VWS V14.01,2013-06-17 01:50:00,
2013-06-16 21:55:00,68.6,65.6,30.01,NE,35,0.0,1.0,90,0.01,,,0.01,VWS V14.01,2013-06-17 01:55:00,
2013-06-16 22:00:00,68.5,65.5,30.01,ENE,61,0.0,2.0,90,0.00,,,0.01,VWS V14.01,2013-06-17 02:00:00,
2013-06-16 22:05:00,68.5,65.5,30.02,ENE,66,0.0,3.0,90,0.00,,,0.01,VWS V14.01,2013-06-17 02:05:00,
2013-06-16 22:10:00,68.4,65.4,30.02,ENE,66,0.0,3.0,90,0.00,,,0.01,VWS V14.01,2013-06-17 02:10:00,
2013-06-16 22:15:00,68.4,65.4,30.02,ENE,66,0.0,3.0,90,0.00,,,0.01,VWS V14.01,2013-06-17 02:15:00,
2013-06-16 22:20:00,68.3,65.3,30.03,ENE,66,0.0,3.0,90,0.00,,,0.01,VWS V14.01,2013-06-17 02:20:00,
2013-06-16 22:25:00,68.2,65.2,30.03,ENE,66,0.0,3.0,90,0.00,,,0.01,VWS V14.01,2013-06-17 02:25:00,
2013-06-16 22:30:00,68.1,65.4,30.03,ENE,66,0.0,0.0,91,0.00,,,0.01,VWS V14.01,2013-06-17 02:30:00,
2013-06-16 22:35:00,68.0,65.3,30.03,ENE,66,0.0,0.0,91,0.00,,,0.01,VWS V14.01,2013-06-17 02:35:00,
2013-06-16 22:40:00,68.0,65.3,30.03,ENE,66,0.0,1.0,91,0.00,,,0.01,VWS V14.01,2013-06-17 02:40:00,
2013-06-16 22:45:00,67.9,65.2,30.03,ENE,66,0.0,1.0,91,0.00,,,0.01,VWS V14.01,2013-06-17 02:45:00,
2013-06-16 22:50:00,67.9,65.2,30.03,ENE,66,0.0,1.0,91,0.00,,,0.01,VWS V14.01,2013-06-17 02:50:00,
2013-06-16 22:55:00,67.8,65.1,30.03,ENE,66,0.0,1.0,91,0.00,,,0.01,VWS V14.01,2013-06-17 02:55:00,
2013-06-16 23:00:00,67.8,65.1,30.02,ENE,66,0.0,0.0,91,0.00,,,0.01,VWS V14.01,2013-06-17 03:00:00,
2013-06-16 23:05:00,67.7,65.0,30.03,ENE,66,0.0,0.0,91,0.00,,,0.01,VWS V14.01,2013-06-17 03:05:00,
2013-06-16 23:10:00,67.6,64.9,30.03,ENE,66,0.0,0.0,91,0.00,,,0.01,VWS V14.01,2013-06-17 03:10:00,
2013-06-16 23:15:00,67.5,64.8,30.03,ENE,66,0.0,0.0,91,0.00,,,0.01,VWS V14.01,2013-06-17 03:15:00,
2013-06-16 23:20:00,67.5,64.8,30.02,ENE,66,0.0,1.0,91,0.00,,,0.01,VWS V14.01,2013-06-17 03:20:00,
2013-06-16 23:25:00,67.4,65.0,30.02,ENE,66,0.0,1.0,92,0.00,,,0.01,VWS V14.01,2013-06-17 03:25:00,
2013-06-16 23:30:00,67.4,65.0,30.02,ENE,66,0.0,0.0,92,0.00,,,0.01,VWS V14.01,2013-06-17 03:30:00,
2013-06-16 23:35:00,67.3,64.9,30.02,ENE,66,0.0,0.0,92,0.00,,,0.01,VWS V14.01,2013-06-17 03:35:00,
2013-06-16 23:40:00,67.3,64.9,30.02,ENE,66,0.0,0.0,92,0.00,,,0.01,VWS V14.01,2013-06-17 03:40:00,
2013-06-16 23:45:00,67.2,64.8,30.02,ENE,66,0.0,0.0,92,0.00,,,0.01,VWS V14.01,2013-06-17 03:45:00,
2013-06-16 23:50:00,67.2,64.8,30.02,ENE,66,0.0,0.0,92,0.00,,,0.01,VWS V14.01,2013-06-17 03:50:00,
2013-06-16 23:55:00,67.2,64.8,30.02,ENE,66,0.0,0.0,92,0.00,,,0.01,VWS V14.01,2013-06-17 03:55:00,